Location: Maccacari
(45.1333°N, 11.1333°E)
Time: 08:40:00
(UTC+00:00)

NOSS 3-2 (C) - Pass Details

Date: 18 September 2020
Orbit: 795 x 1418 km, 63.4° (Epoch: 25 October)

Event Time Altitude Azimuth Distance (km) Brightness Sun altitude
Rises 18:44:29 0° 322° (NW) 3,893 7.6 -15.4°
Reaches altitude 10° 18:47:09 10° 329° (NNW) 3,024 6.8 -15.9°
Maximum altitude 18:54:12 46° 41° (NE) 1,626 4.5 -17.1°
Enters shadow 18:58:45 25° 101° (E) 2,399 4.9 -17.8°
